Showing default

STARONE C4, 40733

Orbit data source: Space-Track

STARONE C4, 40733 is a payload satellite owned by Star One (BR) in GEO that was launched on Wed, 15 Jul 2015 UTC via an ARIANE 5ECA launch vehicle from the French Guiana (FRGUI). Payload-class satellites include a variety of spacecraft equipped with specific instruments for various scientific and technological missions. These include communications satellites like Starlink; space stations such as the ISS; scientific satellites like the Hubble; Earth observation satellites from companies like Planet Labs, Umbra, and HawkEye 360; GPS; miniature CubeSats for education and research; and military/defense satellites.

Loading next visibility...
Identifier
40733, 2015-034B
Orbit
GEO
Country
Flag of BRBR / BRAZ
Related business
Manufacturer
SS/Loral (MDA)
Mission
Operational Commercial Communications
Bus & Motor
LS-1300, R-4D
Mass
5,565 kg wet, ~3,500 kg dry
Launch date (UTC)
2015-07-15 (11 years ago)
Launch vehicle
ARIANE 5ECA
Launch site
French Guiana (FRGUI)
Object type
Payload
Rocket body
Debris
Shape & HBR
Box + 2 Pan, 13.1 m
Radar Cross Section
27.753 m², Large (>1 m²)

Expand to show TLE details & history
Last TLE update: 2 days ago

TLE from 2 days ago
0 STARONE C4
1 40733U 15034B   26171.37811707 -.00000270  00000-0  00000+0 0  9990
2 40733   0.0219   6.8660 0002060  49.2655 278.5883  1.00272341 40045
Epoch: 2026-06-20T09:04Z
TLE epoch observation values (Epoch: 2026-06-20T09:04:29.314Z)
Latitude
-0.02082°
Longitude
-70.00704°
Altitude
35,784.665 km
Speed
3.075 km/s
True Right ascension
22h 18m 50s
True Declination
0° 01' 15"
Sunlit
Object was in daylight at epoch
Visualization orbit readout
Latitude
Unknown
Longitude
Unknown
Altitude
Unknown
Speed
Unknown
Apparent Right ascension
Unknown
Apparent Declination
Unknown
Sunlit
N/A
Visualization observer readout
Local Sidereal Time
21:38:24
Azimuth
Unknown
Elevation
Unknown
Doppler factor
Unknown
Orbital elements
Apogee altitude
35,796.196 km
Perigee altitude
35,778.823 km
Semi-major axis
42,165.646 km
Eccentricity
0.00021
Inclination
0.0219°
RAAN
6.866°
Arg. of periapsis
49.2655°
True anomaly
278.56496°
Mean anomaly
278.5883°
Eccentric anomaly
278.57663°
Mean motion
0.25067 °/min
Orbital period
1,436.14 mins
BSTAR
0
Loading maneuver chart data...
Computing Atmospheric mass density...
Loading historical data...
Loading historical data...
Loading historical data...
Loading historical data...
Loading historical data...
Loading historical data...
Loading historical data...

Documentation

Showing up to 5 results
|